Phoenix Deer Valley, AZ

11:32 AM MST on November 13, 2019 (GMT -0700)
Phoenix-Deer Valley Municipal

Weather History for KDVT - September, 2019

Change the Weather History Date:

Monday, September 23, 2019

  Actual Average Record
Temperature  
Mean Temperature 74 °F -  
Max Temperature 82 °F 93 °F 105 °F (2001)
Min Temperature 66 °F 72 °F 59 °F (2017)
Cooling Degree Days 9    
Growing Degree Days 24 (Base 50)    
Moisture  
Dew Point 64 °F    
Average Humidity 73    
Maximum Humidity 93    
Minimum Humidity 24    
Precipitation  
Precipitation 0.41 in - - ()
Sea Level Pressure  
Sea Level Pressure 29.91 in    
Wind  
Wind Speed 10 mph ()    
Max Wind Speed 28 mph    
Max Gust Speed 37 mph    
Visibility 9.2 miles    
Events Rain , Thunderstorm    
Averages and records for this station are not official NWS values.
T = Trace of Precipitation, MM = Missing Value Source: Averaged Metar Reports

Daily Weather History Graph

Daily Weather History Graph

Search for Another Location

Airport or City:

Astronomy

Sep. 23, 2019 Rise Set
Actual Time 6:17 AM MST 6:23 PM MST
Civil Twilight 5:52 AM MST 6:48 PM MST
Nautical Twilight 5:23 AM MST 7:17 PM MST
Astronomical Twilight 4:53 AM MST 7:46 PM MST
Moon 12:21 AM MST (9/23) 3:03 PM MST (9/23)
Length of Visible Light 12h 56m
Length of Day
12h 06m
Waning Crescent, 32% of the Moon is Illuminated
Sep 23
Waning Crescent
Sep 28
New
Oct 5
First Quarter
Oct 13
Full
Oct 21
Last Quarter

Hourly Weather History & Observations

Time (MST) Temp. Heat Index Dew Point Humidity Pressure Visibility Wind Dir Wind Speed Gust Speed Precip Events Conditions
12:53 AM 82.0 °F - 42.1 °F 24% 29.84 in 10.0 mi East 8.1 mph - N/A   Scattered Clouds
1:53 AM 81.0 °F 80.7 °F 55.0 °F 41% 29.85 in 10.0 mi SE 3.5 mph - N/A   Scattered Clouds
2:53 AM 82.0 °F 84.1 °F 66.0 °F 58% 29.84 in 10.0 mi South 9.2 mph - N/A   Overcast
3:53 AM 79.0 °F - 64.9 °F 62% 29.85 in 10.0 mi SE 9.2 mph - N/A   Overcast
4:53 AM 78.1 °F - 66.0 °F 66% 29.86 in 10.0 mi ESE 5.8 mph - N/A   Overcast
5:53 AM 75.9 °F - 68.0 °F 76% 29.88 in 10.0 mi Variable 4.6 mph - 0.00 in Rain Light Rain
6:53 AM 73.9 °F - 70.0 °F 87% 29.89 in 10.0 mi ESE 5.8 mph - 0.10 in Rain Light Rain
7:45 AM 73.0 °F - 71.1 °F 93% 29.97 in 10.0 mi SE 10.4 mph - 0.04 in Rain Light Rain
7:53 AM 73.0 °F - 71.1 °F 93% 29.91 in 10.0 mi SE 8.1 mph - 0.04 in   Overcast
8:14 AM 73.0 °F - 71.1 °F 93% 29.98 in 10.0 mi ESE 5.8 mph - N/A   Overcast
8:53 AM 73.0 °F - 71.1 °F 93% 29.93 in 10.0 mi East 6.9 mph - N/A   Mostly Cloudy
9:30 AM 75.9 °F - 71.1 °F 85% 30.00 in 6.0 mi ENE 8.1 mph - 0.03 in   Overcast
9:41 AM 75.0 °F - 70.0 °F 84% 29.99 in 7.0 mi ENE 9.2 mph - 0.03 in Rain Light Rain
9:53 AM 75.0 °F - 70.0 °F 84% 29.93 in 10.0 mi ENE 15.0 mph - 0.03 in   Overcast
10:14 AM 75.9 °F - 69.1 °F 79% 29.99 in 10.0 mi East 12.7 mph 23.0 mph N/A   Scattered Clouds
10:53 AM 78.1 °F - 68.0 °F 71% 29.89 in 10.0 mi ENE 12.7 mph 21.9 mph N/A   Scattered Clouds
11:53 AM 81.0 °F 83.8 °F 68.0 °F 65% 29.86 in 10.0 mi East 12.7 mph 21.9 mph N/A   Scattered Clouds
12:23 PM 82.0 °F 85.5 °F 69.1 °F 65% 29.94 in 10.0 mi Variable 5.8 mph - N/A Thunderstorm Overcast
12:38 PM 73.9 °F - 66.9 °F 79% 29.94 in 10.0 mi North 24.2 mph 28.8 mph 0.00 in Rain Light Rain
12:53 PM 72.0 °F - 64.9 °F 78% 29.87 in 10.0 mi North 18.4 mph 28.8 mph 0.00 in   Overcast
1:08 PM 73.9 °F - 66.0 °F 76% 29.92 in 10.0 mi NNE 19.6 mph 31.1 mph N/A   Mostly Cloudy
1:53 PM 69.1 °F - 64.0 °F 84% 29.94 in 4.0 mi NNW 19.6 mph 36.8 mph 0.09 in Rain Rain
1:56 PM 69.1 °F - 64.0 °F 84% 29.99 in 2.5 mi NW 21.9 mph 34.5 mph 0.02 in Rain Heavy Rain
2:09 PM 70.0 °F - 64.0 °F 81% 29.96 in 8.0 mi North 27.6 mph 34.5 mph 0.03 in Rain Light Rain
2:53 PM 75.9 °F - 63.0 °F 64% 29.86 in 10.0 mi NNE 18.4 mph 26.5 mph 0.03 in   Clear
3:53 PM 80.1 °F 81.1 °F 61.0 °F 52% 29.87 in 10.0 mi NNE 13.8 mph 19.6 mph N/A   Scattered Clouds
4:38 PM 78.1 °F - 60.1 °F 54% 29.94 in 10.0 mi NE 10.4 mph - N/A Thunderstorm Thunderstorm
4:53 PM 75.0 °F - 60.1 °F 60% 29.86 in 7.0 mi North 16.1 mph 20.7 mph 0.02 in Rain Rain
5:10 PM 73.0 °F - 61.0 °F 66% 29.90 in 10.0 mi NE 13.8 mph - 0.01 in Rain , Thunderstorm Light Rain
5:19 PM 75.0 °F - 60.1 °F 60% 29.90 in 10.0 mi ENE 12.7 mph - 0.01 in Rain , Thunderstorm Light Thunderstorms and Rain
5:53 PM 70.0 °F - 62.1 °F 76% 29.84 in 9.0 mi ENE 13.8 mph 21.9 mph 0.02 in Rain , Thunderstorm Light Rain
6:15 PM 70.0 °F - 61.0 °F 73% 29.93 in 8.0 mi North 12.7 mph 17.3 mph 0.01 in Rain , Thunderstorm Light Thunderstorms and Rain
6:53 PM 70.0 °F - 61.0 °F 73% 29.89 in 10.0 mi NNE 10.4 mph - 0.05 in Rain , Thunderstorm Light Rain
7:16 PM 69.1 °F - 61.0 °F 75% 29.89 in 8.0 mi ENE 24.2 mph 33.4 mph 0.01 in Rain , Thunderstorm Light Thunderstorms and Rain
7:25 PM 69.1 °F - 61.0 °F 75% 29.92 in 9.0 mi ESE 18.4 mph 33.4 mph 0.01 in Rain , Thunderstorm Light Rain
7:38 PM 66.9 °F - 63.0 °F 87% 29.94 in 10.0 mi ESE 13.8 mph 26.5 mph 0.01 in Thunderstorm Mostly Cloudy
7:45 PM 66.9 °F - 63.0 °F 87% 29.93 in 10.0 mi East 12.7 mph 20.7 mph 0.01 in   Mostly Cloudy
7:53 PM 66.9 °F - 63.0 °F 87% 29.89 in 10.0 mi East 11.5 mph - 0.01 in Rain Light Rain
8:53 PM 70.0 °F - 60.1 °F 71% 29.89 in 10.0 mi NE 16.1 mph 20.7 mph 0.00 in   Scattered Clouds
9:53 PM 70.0 °F - 61.0 °F 73% 29.91 in 10.0 mi NNE 4.6 mph - N/A   Mostly Cloudy
10:53 PM 70.0 °F - 62.1 °F 76% 29.88 in 10.0 mi NNW 5.8 mph - N/A   Mostly Cloudy
11:11 PM 70.0 °F - 61.0 °F 73% 29.94 in 10.0 mi NW 5.8 mph - N/A Thunderstorm Mostly Cloudy
11:30 PM 69.1 °F - 61.0 °F 75% 29.96 in 5.0 mi NNW 12.7 mph - 0.02 in Rain Rain
11:45 PM 70.0 °F - 61.0 °F 73% 29.97 in 10.0 mi NW 15.0 mph - 0.02 in Thunderstorm Thunderstorm
11:53 PM 69.1 °F - 61.0 °F 75% 29.95 in 10.0 mi West 12.7 mph - 0.02 in Thunderstorm Thunderstorm